TimeICT,TemperatureF,Dew PointF,Humidity,Sea Level PressureIn,VisibilityMPH,Wind Direction,Wind SpeedMPH,Gust SpeedMPH,PrecipitationIn,Events,Conditions,WindDirDegrees,DateUTC
6:30 AM,80.6,75.2,84,29.80,6.2,ESE,1.2,-,N/A,,Partly Cloudy,110,2012-10-04 23:30:00
7:00 AM,81,78,88,29.81,6,Calm,Calm,,,,Partly Cloudy,,2012-10-05 00:00:00
7:00 AM,82.4,75.2,79,29.83,6.2,West,4.6,-,N/A,,Partly Cloudy,280,2012-10-05 00:00:00
7:30 AM,84.2,75.2,74,29.83,6.2,West,4.6,-,N/A,,Partly Cloudy,270,2012-10-05 00:30:00
8:00 AM,84.2,73.4,70,29.83,6.2,SW,4.6,-,N/A,,Scattered Clouds,220,2012-10-05 01:00:00
8:30 AM,86.0,73.4,66,29.83,6.2,WSW,4.6,-,N/A,,Scattered Clouds,250,2012-10-05 01:30:00
9:00 AM,86.0,75.2,70,29.86,6.2,WSW,2.3,-,N/A,,Scattered Clouds,240,2012-10-05 02:00:00
9:30 AM,87.8,75.2,66,29.86,6.2,WSW,6.9,-,N/A,,Scattered Clouds,250,2012-10-05 02:30:00
10:00 AM,87.8,73.4,62,29.86,6.2,West,10.4,-,N/A,,Scattered Clouds,260,2012-10-05 03:00:00
10:30 AM,87.8,73.4,62,29.86,6.2,WSW,4.6,-,N/A,,Scattered Clouds,250,2012-10-05 03:30:00
11:00 AM,89.6,75.2,62,29.83,6.2,NNW,2.3,-,N/A,,Scattered Clouds,340,2012-10-05 04:00:00
11:30 AM,89.6,75.2,62,29.83,6.2,North,12.7,-,N/A,,Scattered Clouds,350,2012-10-05 04:30:00
12:00 PM,89.6,73.4,59,29.80,6.2,North,5.8,-,N/A,,Partly Cloudy,360,2012-10-05 05:00:00
12:30 PM,89.6,73.4,59,29.77,6.2,North,3.5,-,N/A,,Partly Cloudy,360,2012-10-05 05:30:00
1:00 PM,89.6,73.4,59,29.77,6.2,NNW,4.6,-,N/A,,Partly Cloudy,340,2012-10-05 06:00:00
1:30 PM,89.6,71.6,55,29.74,6.2,NNE,5.8,-,N/A,,Partly Cloudy,30,2012-10-05 06:30:00
2:00 PM,89.6,71.6,55,29.74,6.2,NNE,4.6,-,N/A,,Partly Cloudy,30,2012-10-05 07:00:00
2:30 PM,89.6,71.6,55,29.71,6.2,ENE,3.5,-,N/A,,Partly Cloudy,60,2012-10-05 07:30:00
3:00 PM,87.8,73.4,62,29.71,6.2,SSE,6.9,-,N/A,,Partly Cloudy,150,2012-10-05 08:00:00
3:30 PM,87.8,75.2,66,29.71,6.2,ESE,6.9,-,N/A,,Partly Cloudy,120,2012-10-05 08:30:00
4:00 PM,87.8,75.2,66,29.74,6.2,East,5.8,-,N/A,,Partly Cloudy,90,2012-10-05 09:00:00
4:30 PM,80.6,69.8,70,29.77,5.0,West,18.4,-,N/A,Thunderstorm,Thunderstorm,260,2012-10-05 09:30:00
5:30 PM,77.0,69.8,78,29.77,5.6,SSW,12.7,-,N/A,Thunderstorm,Thunderstorm,210,2012-10-05 10:30:00
6:00 PM,75.2,71.6,89,29.80,5.6,WSW,6.9,-,N/A,Thunderstorm,Thunderstorm,240,2012-10-05 11:00:00
6:30 PM,77.0,71.6,83,29.80,5.6,WSW,6.9,-,N/A,Thunderstorm,Thunderstorm,240,2012-10-05 11:30:00
7:00 PM,77.0,71.6,83,29.80,5.6,SSW,4.6,-,N/A,,Scattered Clouds,210,2012-10-05 12:00:00
7:30 PM,77.0,71.6,83,29.80,5.6,SSW,6.9,-,N/A,,Scattered Clouds,210,2012-10-05 12:30:00
8:00 PM,77.0,71.6,83,29.83,5.6,SSW,5.8,-,N/A,,Scattered Clouds,210,2012-10-05 13:00:00
9:00 PM,77.0,71.6,83,29.86,5.6,South,4.6,-,N/A,,Scattered Clouds,190,2012-10-05 14:00:00
10:00 PM,77.0,73.4,89,29.86,5.6,SSW,5.8,-,N/A,,Scattered Clouds,210,2012-10-05 15:00:00
11:00 PM,78.8,73.4,83,29.86,5.6,South,4.6,-,N/A,,Scattered Clouds,180,2012-10-05 16:00:00
11:30 PM,78.8,73.4,83,29.86,5.6,South,2.3,-,N/A,,Scattered Clouds,180,2012-10-05 16:30:00